Aérodrome :
LOGIN :

S'inscrire | Disclaimer

   EN    FR    IT 

 










Légende :    VFR   VFR Marginal   IFR   IFR Intensif   IFR Très Intensif
Visi : 
Plafond : 
>= 8 km
>= 3000ft
5 à 8 km
1000 à 3000 ft
1500m à 5 km
500 à 1000 ft
800 à 1500m
200 à 500 ft
< 800m
< 200 ft
Symboles :   Orages  Brouillard  Fortes neiges  Fortes précipitations  Vent > 20 kt
SIGMETs :   Divers  Orages  Givrage  Turbulence  Onde Orograph.  Cendres Volcan.







- Altitude de l'aérodrome : 489 ft
- Code IATA : GDN


EPGD - Gdansk

DERNIER METAR :
  • 171400Z 34007KT 290V010 9999 SCT043 21/12 Q1022

METARs EXPIRÉS :
  • 171330Z 34008KT 300V010 9999 BKN044 22/11 Q1022
  • 171300Z 32008KT 270V360 9999 SCT047 22/11 Q1022
  • 171230Z 32011KT 290V360 9999 SCT045 21/11 Q1022
  • 171200Z 31011KT 280V010 9999 FEW044 22/11 Q1022
  • 171130Z 32010KT 280V350 9999 FEW042 21/11 Q1022

TAF TAF EPGD
Valide du 17 à 12h jusqu'au 18 à 12h UTC


171130Z 1712/1812 32012KT CAVOK
BECMG 1716/1718 VRB02KT
Pas de NOTAMs connus pour ce terrain.



MET'MAP, la Météo Aéronautique d'un coup d'oeil ! - Copyright ORBIFLY Décembre 2007 - Disclaimer

ORBIFLY MET'MAP TEAM :

Programmation & Développement : Alexandra Zaïnal
Conception & Développement : Baudouin d'Aumeries
Co-Programmation & Développement : Marc-Olivier Méhu
Soutien technique & logistique : Manuel Goepfert

Contact : metmap@orbifly.com




SOURCES & CREDITS :

   NOAA